Location: Unspecified
(48.5670°N, 0.0000°E)
Time: 11:57:21
(UTC+00:00)

Vanguard 2 - All Passes

Search period start: 20 July 2019 00:00
Search period end: 30 July 2019 00:00
Orbit: 553 x 2938 km, 32.9° (Epoch: 20 July)

Date Brightness Start Highest point End Pass type
(mag) Time Alt. Az. Time Alt. Az. Time Alt. Az.
20 Jul - 01:12:38 10° WSW 01:21:20 28° S 01:27:14 10° SE visible
20 Jul - 03:24:56 10° WSW 03:28:42 14° SSW 03:31:48 10° S visible
20 Jul - 21:10:47 10° SSW 21:21:07 22° SSE 21:29:10 10° ESE visible
20 Jul - 23:19:16 10° SW 23:30:27 31° S 23:38:04 10° ESE visible
21 Jul - 01:30:27 10° WSW 01:38:56 27° SSW 01:44:45 10° SE visible
21 Jul - 03:44:16 10° SW 03:46:02 11° SW 03:47:39 10° SSW visible
21 Jul - 19:24:07 10° SSE 19:29:20 12° SE 19:34:08 10° SE daylight
21 Jul - 21:27:03 10° SSW 21:38:49 26° SSE 21:47:38 10° ESE visible
21 Jul - 23:36:40 10° SW 23:48:10 33° S 23:55:52 10° ESE visible
22 Jul - 01:48:24 10° WSW 01:56:28 25° SSW 02:02:06 10° SSE visible
22 Jul - 19:37:45 10° S 19:46:54 17° SSE 19:54:48 10° ESE daylight
22 Jul - 21:43:46 10° SW 21:56:32 30° SSE 22:05:49 10° ESE visible
22 Jul - 23:54:15 10° WSW 00:05:52 34° S 00:13:34 10° SE visible
23 Jul - 02:06:31 10° WSW 02:13:56 22° SSW 02:19:15 10° SSE visible
23 Jul - 19:53:03 10° SSW 20:04:29 22° SSE 20:13:58 10° ESE daylight
23 Jul - 22:00:50 10° SW 22:14:16 34° S 22:23:48 10° ESE visible
24 Jul - 00:12:00 10° WSW 00:23:30 34° S 00:31:10 10° SE visible
24 Jul - 02:24:53 10° WSW 02:31:17 18° SSW 02:36:07 10° S visible
24 Jul - 18:08:45 10° SSE 18:12:38 11° SE 18:16:23 10° SE daylight
24 Jul - 20:09:08 10° SSW 20:22:06 27° SSE 20:32:34 10° ESE visible
24 Jul - 22:18:08 10° SW 22:31:59 37° S 22:41:40 10° ESE visible
25 Jul - 00:29:51 10° WSW 00:41:06 32° SSW 00:48:38 10° SE visible
25 Jul - 02:43:41 10° WSW 02:48:33 15° SW 02:52:30 10° S visible
25 Jul - 18:21:10 10° S 18:30:02 16° SE 18:38:15 10° ESE daylight
25 Jul - 20:25:42 10° SSW 20:39:45 32° SSE 20:50:50 10° ESE visible
25 Jul - 22:35:38 10° WSW 22:49:42 39° S 22:59:25 10° ESE visible
26 Jul - 00:47:51 10° WSW 00:58:36 30° SSW 01:05:58 10° SE visible
26 Jul - 03:03:50 10° SW 03:05:43 11° SW 03:07:28 10° SSW visible
26 Jul - 18:36:04 10° S 18:47:28 21° SE 18:57:48 10° ESE daylight
26 Jul - 20:42:37 10° SW 20:57:25 36° SSE 21:08:53 10° ESE visible
26 Jul - 22:53:18 10° WSW 23:07:23 39° S 23:17:05 10° ESE visible
27 Jul - 01:05:59 10° WSW 01:16:02 26° SSW 01:23:06 10° SSE visible
27 Jul - 18:51:53 10° SSW 19:04:57 26° SSE 19:16:37 10° ESE daylight
27 Jul - 20:59:49 10° SW 21:15:07 39° S 21:26:49 10° ESE visible
27 Jul - 23:11:05 10° WSW 23:25:02 38° SSW 23:34:38 10° SE visible
28 Jul - 01:24:20 10° WSW 01:33:21 22° SW 01:39:58 10° SSE visible
28 Jul - 17:05:57 10° SSE 17:13:03 14° SE 17:20:06 10° ESE daylight
28 Jul - 19:08:16 10° SSW 19:22:29 31° SSE 19:35:01 10° ESE daylight
28 Jul - 21:17:13 10° WSW 21:32:49 42° S 21:44:38 10° ESE visible
28 Jul - 23:28:59 10° WSW 23:42:36 36° SSW 23:52:04 10° SE visible
29 Jul - 01:43:02 10° WSW 01:50:34 18° SW 01:56:25 10° S visible
29 Jul - 17:20:06 10° S 17:30:19 19° SE 17:40:27 10° ESE daylight
29 Jul - 19:25:03 10° SW 19:40:04 36° SSE 19:53:12 10° ESE daylight
29 Jul - 21:34:48 10° WSW 21:50:32 43° S 22:02:22 10° ESE visible
